TimeCST,TemperatureF,Dew PointF,Humidity,Sea Level PressureIn,VisibilityMPH,Wind Direction,Wind SpeedMPH,Gust SpeedMPH,PrecipitationIn,Events,Conditions,WindDirDegrees,DateUTC
12:53 AM,10.0,8.1,92,29.76,0.2,NE,3.5,-,N/A,Fog,Light Freezing Fog,50,2012-12-15 06:53:00
1:53 AM,12.0,9.0,88,29.75,0.5,NNE,3.5,-,N/A,Fog,Light Freezing Fog,30,2012-12-15 07:53:00
2:01 AM,12.2,8.6,85,29.70,1.0,NNE,4.6,-,N/A,,Mist,20,2012-12-15 08:01:00
2:13 AM,10.4,8.6,92,29.70,0.5,NW,5.8,-,N/A,Fog,Light Freezing Fog,320,2012-12-15 08:13:00
2:25 AM,10.4,8.6,92,29.70,2.5,NNW,4.6,-,N/A,,Overcast,340,2012-12-15 08:25:00
2:53 AM,10.9,7.0,84,29.76,3.0,NNW,3.5,-,N/A,,Overcast,330,2012-12-15 08:53:00
3:32 AM,10.4,8.6,92,29.71,2.5,Calm,Calm,-,N/A,,Overcast,0,2012-12-15 09:32:00
3:53 AM,10.9,7.0,84,29.75,2.5,WNW,3.5,-,N/A,,Overcast,300,2012-12-15 09:53:00
4:35 AM,10.4,8.6,92,29.69,2.0,Calm,Calm,-,N/A,,Overcast,0,2012-12-15 10:35:00
4:53 AM,12.0,8.1,84,29.74,3.0,Calm,Calm,-,N/A,,Overcast,0,2012-12-15 10:53:00
5:20 AM,12.2,8.6,85,29.68,3.0,Calm,Calm,-,N/A,,Overcast,0,2012-12-15 11:20:00
5:53 AM,12.9,9.0,84,29.74,4.0,West,3.5,-,N/A,,Mostly Cloudy,280,2012-12-15 11:53:00
6:31 AM,14.0,10.4,86,29.69,4.0,NW,4.6,-,N/A,,Scattered Clouds,310,2012-12-15 12:31:00
6:53 AM,15.1,10.9,84,29.75,4.0,Calm,Calm,-,N/A,,Scattered Clouds,0,2012-12-15 12:53:00
7:53 AM,15.1,12.0,88,29.74,3.0,NW,5.8,-,N/A,,Mostly Cloudy,320,2012-12-15 13:53:00
8:21 AM,15.8,12.2,86,29.68,2.0,NW,6.9,-,N/A,,Mostly Cloudy,320,2012-12-15 14:21:00
8:53 AM,16.0,12.9,88,29.73,2.0,NW,4.6,-,N/A,,Mostly Cloudy,320,2012-12-15 14:53:00
9:04 AM,15.8,12.2,86,29.67,3.0,NW,6.9,-,N/A,,Mostly Cloudy,320,2012-12-15 15:04:00
9:53 AM,18.0,14.0,84,29.72,5.0,NNW,8.1,-,N/A,,Mostly Cloudy,330,2012-12-15 15:53:00
10:53 AM,19.9,17.1,89,29.73,5.0,NNW,6.9,-,N/A,,Mostly Cloudy,330,2012-12-15 16:53:00
11:53 AM,21.0,18.0,88,29.72,7.0,NNW,9.2,-,N/A,,Overcast,340,2012-12-15 17:53:00
12:53 PM,23.0,17.1,78,29.70,10.0,NW,10.4,-,N/A,,Mostly Cloudy,320,2012-12-15 18:53:00
1:53 PM,23.0,17.1,78,29.69,10.0,NNW,11.5,-,N/A,,Mostly Cloudy,330,2012-12-15 19:53:00
2:53 PM,21.9,16.0,78,29.70,10.0,NNW,13.8,-,N/A,,Mostly Cloudy,340,2012-12-15 20:53:00
3:53 PM,21.9,16.0,78,29.70,10.0,North,12.7,-,N/A,,Mostly Cloudy,350,2012-12-15 21:53:00
4:53 PM,19.0,12.9,77,29.73,10.0,NNW,12.7,-,N/A,,Mostly Cloudy,340,2012-12-15 22:53:00
5:53 PM,16.0,12.0,84,29.75,10.0,North,11.5,-,N/A,,Scattered Clouds,350,2012-12-15 23:53:00
6:53 PM,14.0,10.0,84,29.76,10.0,NNW,10.4,-,N/A,,Partly Cloudy,330,2012-12-16 00:53:00
7:53 PM,12.9,8.1,81,29.77,10.0,NW,11.5,-,N/A,,Clear,310,2012-12-16 01:53:00
8:50 PM,12.2,8.6,85,29.73,10.0,NNW,10.4,-,N/A,,Mostly Cloudy,330,2012-12-16 02:50:00
8:53 PM,14.0,9.0,80,29.79,10.0,NNW,11.5,-,N/A,,Mostly Cloudy,330,2012-12-16 02:53:00
9:17 PM,15.8,10.4,79,29.73,10.0,NNW,16.1,25.3,N/A,,Overcast,340,2012-12-16 03:17:00
9:53 PM,15.1,12.0,88,29.79,8.0,NNW,18.4,-,0.00,,Overcast,330,2012-12-16 03:53:00
10:53 PM,17.1,14.0,88,29.79,7.0,NNW,17.3,28.8,0.00,Snow,Light Snow,340,2012-12-16 04:53:00
11:16 PM,17.6,14.0,86,29.73,9.0,NNW,17.3,25.3,0.00,,Overcast,340,2012-12-16 05:16:00
11:53 PM,18.0,15.1,88,29.79,5.0,North,20.7,-,0.00,Snow,Light Snow,360,2012-12-16 05:53:00